LUCH-5V

Last updated on Thu Oct 30 2025 00:02:49 GMT+0000 (Coordinated Universal Time)

1 39727U 14023A 25302.41847076 -.00000255 00000+0 00000+0 0 9998 2 39727 4.5529 71.9147 0003781 178.9005 32.5746 1.00267943 42042
UTC large
Height (km)
Speed (km/s)
/
Latitude / Longitude
Inclination (degrees)
Orbital Period (minutes)
Azimuth
Elevation
Range (km)
Doppler Factor

Next 0 passes for location: London (51.5072 / 0.1276)

Sorry there are no passes over London.